Temperature
20 20 20 20 21 21 21 21 20 20 20 20 20 20 20 20 20 20 19 19 19 19 19 19 19 19 19 19 19 19 19 20 20 20 20 20 20 20 20 19 19 19 19
21 20 20 20 21 21 21 21 20 20 20 20 20 20 20 20 20 20 19 19 19 19 19 19 19 19 19 19 19 20 20 20 20 20 20 20 20 20 20 19 19 19 19
21 21 20 20 21 21 21 21 21 20 20 20 20 20 20 20 20 20 19 19 19 19 19 19 19 19 19 19 19 19 20 20 20 20 20 19 19 19 20 20 19 19 19
22 21 20 21 21 21 21 21 21 20 20 20 19 19 19 19 20 20 19 19 19 19 19 19 19 19 19 19 19 19 19 20 20 19 19 18 18 18 19 19 19 19 19
22 21 21 21 21 21 21 20 20 20 19 19 19 19 19 19 19 19 19 19 19 20 20 20 20 20 20 19 20 19 19 19 19 18 18 18 18 17 18 19 19 19 19
21 21 21 21 21 21 20 20 20 20 19 19 19 19 19 19 19 19 19 19 19 19 19 19 20 20 20 20 19 19 19 19 19 18 17 17 17 17 17 18 18 19 19
21 21 21 21 21 20 20 20 20 20 19 19 19 19 19 19 19 19 19 19 19 19 19 19 19 19 19 19 19 19 19 19 19 18 17 18 17 17 17 18 18 18 19
21 21 21 21 21 20 20 20 20 20 19 19 19 19 19 19 19 19 19 19 19 19 19 19 19 19 19 19 19 19 19 19 19 18 18 18 18 17 17 17 18 18 19
21 21 21 21 21 20 20 20 20 19 19 19 19 19 19 19 19 19 19 19 19 19 19 19 19 19 19 19 19 19 18 18 18 18 18 18 17 17 17 17 18 18 18
21 21 21 21 21 21 20 20 20 20 20 19 19 19 19 19 19 19 19 19 19 19 19 19 19 19 19 19 19 18 18 18 18 18 18 18 17 18 18 17 17 17 18
21 21 21 21 21 21 20 20 20 20 20 20 19 19 19 19 19 19 18 18 18 18 18 19 19 19 19 19 18 18 18 19 18 18 18 18 17 18 18 17 17 17 17
21 21 21 21 21 21 20 20 20 20 20 19 19 19 19 18 18 18 18 18 18 18 18 18 19 19 18 18 18 18 18 18 18 18 18 18 18 18 18 17 17 17 17
21 21 21 21 21 21 21 20 20 20 20 19 19 19 19 18 18 18 18 18 18 18 18 18 18 18 18 18 18 18 18 18 18 18 18 18 18 18 18 17 17 17 17
21 21 21 21 21 21 20 20 20 20 19 19 19 19 19 19 18 18 18 18 18 18 18 18 18 18 18 18 18 18 18 18 18 18 18 18 18 18 17 17 17 17 17
21 21 20 20 21 21 20 20 19 19 19 19 19 19 19 18 18 18 18 18 18 18 18 18 18 18 18 18 18 18 18 18 18 18 18 18 17 17 17 17 17 17 17
21 21 21 20 20 20 19 19 19 19 19 18 18 18 18 18 18 18 18 18 18 18 18 18 18 18 18 18 18 18 18 18 18 18 18 18 17 18 17 17 17 17 17
22 21 21 20 20 19 19 18 18 18 18 18 18 18 18 18 18 18 18 18 18 18 18 18 18 18 18 18 18 18 18 18 18 18 18 18 18 18 18 18 18 18 17
22 21 21 20 20 20 19 18 18 19 19 19 19 19 18 18 18 18 18 18 18 18 18 18 18 18 18 18 18 19 18 19 19 18 18 18 18 19 18 18 17 18 18
22 21 21 20 20 20 19 19 19 19 19 19 19 18 18 18 18 18 18 18 18 18 18 18 18 18 18 18 18 19 19 19 19 19 19 19 19 19 18 18 17 18 18
22 22 21 21 20 20 19 19 19 19 19 18 18 18 18 18 18 18 18 18 18 18 18 18 18 18 18 18 18 18 19 19 19 19 19 19 19 19 18 18 18 17 17
22 21 21 21 20 20 19 19 19 19 18 18 18 17 17 17 17 17 17 17 18 18 18 18 18 17 18 18 18 18 18 18 19 19 19 19 19 19 18 18 18 18 18
21 21 21 20 20 19 19 19 18 18 17 17 17 17 17 17 17 17 17 18 18 18 18 17 17 17 17 17 17 18 18 18 19 19 19 19 19 18 18 18 18 18 18
21 21 20 19 19 19 18 18 18 17 17 17 17 17 17 17 17 17 17 17 17 17 17 17 17 17 17 17 17 17 17 18 19 19 19 19 18 18 18 18 18 18 18
20 20 19 19 18 18 18 17 18 17 17 17 17 17 17 17 17 17 17 17 17 16 16 16 16 16 16 17 17 18 18 18 18 18 18 18 18 18 18 18 18 18 18
19 19 18 18 18 18 18 17 17 17 17 17 17 17 17 17 17 17 17 16 16 16 16 16 16 16 17 17 17 18 18 18 17 17 17 18 18 18 18 18 18 18 17
17 18 18 18 17 17 17 17 17 17 16 16 16 16 17 17 16 16 16 16 15 15 15 16 16 16 16 17 17 17 17 17 17 17 17 17 17 17 17 17 17 17 17
Wind_Speed
9 12 21 21 20 18 17 15 14 13 13 14 15 16 17 17 16 16 15 14 13 12 10 9 9 9 10 10 11 12 12 12 13 13 13 12 10 9 10 12 12 10 11
14 17 22 23 21 20 18 17 16 14 13 13 13 14 14 14 14 14 14 13 11 11 10 8 8 8 8 9 9 10 9 9 9 10 11 10 9 8 9 11 11 10 10
18 19 21 22 21 20 19 18 17 16 14 13 12 12 12 12 12 13 13 12 10 9 9 8 7 7 7 7 8 8 8 7 6 7 7 6 6 7 11 14 12 12 10
18 18 20 22 21 20 19 18 17 16 15 13 12 11 11 11 11 11 11 11 9 8 8 7 7 7 6 6 8 7 6 6 6 5 5 6 6 8 11 13 13 12 11
15 17 20 22 21 20 19 17 16 15 14 12 12 12 11 11 10 10 10 10 9 8 7 7 7 6 6 5 6 6 6 6 6 6 7 8 9 11 12 13 13 12 11
11 16 20 21 20 19 18 17 17 16 15 13 13 13 13 12 11 11 10 9 8 8 7 7 7 6 6 6 5 5 6 7 7 7 8 10 11 15 15 14 14 13 12
11 14 19 21 20 19 18 19 19 18 16 14 13 13 12 11 12 12 10 9 8 8 7 7 6 6 7 8 7 7 7 8 8 8 7 8 12 18 17 16 15 14 14
15 13 18 21 20 19 18 18 18 18 16 14 13 13 12 12 12 13 12 11 11 10 9 8 7 6 7 9 9 8 9 9 9 6 6 6 13 19 19 17 15 15 15
15 12 13 17 19 19 18 18 18 17 16 15 15 15 14 13 13 13 13 12 12 12 11 10 9 8 8 8 9 9 9 10 10 9 10 8 11 20 21 19 17 16 17
13 10 8 12 14 16 16 18 18 17 16 16 17 16 15 14 12 12 13 13 13 12 12 11 10 10 10 9 10 11 11 11 12 11 11 12 13 19 22 20 19 19 19
13 10 8 8 11 13 14 16 17 17 17 16 15 15 14 11 10 11 12 14 14 15 15 13 12 11 12 12 13 14 12 12 13 12 12 14 16 18 20 20 20 20 20
15 12 11 10 9 12 13 13 13 14 15 15 13 13 13 12 12 12 14 17 17 17 16 16 14 13 13 12 13 15 12 14 13 13 14 16 17 18 19 21 21 21 20
16 14 12 11 9 9 7 9 9 10 12 13 14 15 13 11 11 12 11 14 16 16 14 14 14 13 12 11 10 11 13 13 13 14 16 18 18 18 19 20 20 20 18
15 14 13 12 10 9 8 8 9 8 8 9 13 14 11 7 7 8 8 10 11 11 10 10 8 10 12 13 11 11 13 13 13 13 16 19 19 20 20 20 20 19 17
14 13 13 12 11 9 7 6 6 7 8 11 11 13 14 7 5 5 5 7 10 10 8 7 7 7 7 9 10 10 9 11 13 15 15 18 18 19 21 20 19 17 16
14 13 14 12 11 8 7 6 5 7 9 10 12 16 16 11 6 4 4 4 6 8 10 9 7 6 6 5 7 8 8 9 12 14 15 16 17 18 20 21 19 17 16
13 13 15 13 11 9 7 5 4 4 4 4 6 10 12 12 9 6 5 5 5 8 8 7 7 6 5 6 7 8 6 8 9 11 13 13 15 17 19 21 20 18 17
12 13 14 13 11 9 7 5 3 2 1 0 1 3 6 9 11 7 5 5 7 6 4 5 5 5 6 6 6 6 7 6 9 10 12 12 13 13 15 19 21 20 19
12 13 13 10 10 9 7 5 4 2 1 1 1 2 3 4 7 6 4 5 6 4 4 4 5 5 6 7 7 7 7 8 9 9 9 10 12 13 13 14 19 20 20
11 12 12 10 9 9 6 4 2 1 1 2 3 4 4 3 4 4 3 5 5 5 6 5 7 7 6 7 7 6 6 7 7 8 9 7 9 12 13 13 14 16 20
11 12 11 8 7 7 4 4 3 2 2 2 2 1 2 3 4 3 4 6 6 6 8 8 7 8 7 5 4 4 5 7 8 9 8 7 6 8 11 12 12 12 13
9 9 8 7 6 6 4 3 3 3 2 1 1 3 5 5 5 5 6 7 8 7 9 9 8 6 6 5 5 3 3 4 4 6 6 6 6 5 6 8 10 11 12
9 8 8 8 7 6 5 4 3 3 3 3 3 2 3 5 6 6 7 8 9 8 9 10 9 9 8 6 5 5 5 6 3 3 2 4 4 5 6 4 7 11 12
10 9 9 8 8 7 6 5 5 3 2 1 0 2 4 5 7 8 7 8 8 8 9 9 9 8 8 7 5 6 5 5 3 2 3 2 3 6 6 6 8 8 10
9 8 8 8 7 7 6 6 6 4 2 1 1 4 5 5 6 8 7 7 7 6 8 8 8 9 8 7 6 4 4 4 3 4 3 3 4 4 5 7 7 6 7
5 6 7 8 7 6 6 6 7 6 3 1 1 3 4 4 5 7 7 6 5 4 5 5 6 7 6 5 4 4 4 3 4 4 4 3 4 5 5 6 6 6 5
Wind_Direction
152 161 151 146 144 143 140 138 131 123 115 109 104 100 100 101 103 108 115 113 113 114 113 111 109 107 104 106 110 115 119 122 121 121 122 120 114 113 120 116 115 111 112
152 157 151 149 149 147 146 144 142 138 129 120 115 112 111 110 111 114 120 122 120 117 112 106 104 109 117 117 118 121 123 127 129 131 134 134 131 128 149 144 129 130 127
145 152 151 150 151 151 150 149 149 146 140 133 128 124 123 124 123 122 125 128 129 128 124 118 113 112 124 135 136 136 139 143 145 148 147 145 148 141 143 153 143 144 143
144 149 151 151 153 155 156 154 152 151 149 145 142 139 139 138 137 132 130 132 135 137 137 140 138 132 134 148 155 156 163 171 176 184 188 189 184 170 156 157 157 159 160
146 151 154 153 156 159 160 157 155 156 157 157 155 156 154 151 150 146 142 142 147 150 147 150 157 154 155 158 167 177 190 203 210 219 234 234 221 190 181 174 172 173 175
145 152 155 154 157 161 164 164 164 166 168 168 168 171 167 165 165 161 156 153 155 159 156 155 163 169 178 186 201 214 224 232 240 247 251 261 226 198 192 189 185 187 190
147 155 158 158 159 162 168 173 174 173 175 173 172 176 176 175 176 173 169 166 163 163 164 166 176 189 195 201 211 228 244 253 260 266 274 267 218 202 200 198 194 198 199
152 157 161 162 162 165 168 173 179 179 180 179 177 180 181 180 183 180 178 178 177 178 183 185 190 204 205 210 219 232 243 255 266 276 298 277 222 209 207 205 203 203 204
151 156 162 166 166 168 169 171 176 177 177 177 178 181 183 185 185 187 188 190 191 193 200 201 203 211 210 211 222 233 243 254 267 280 286 286 242 217 212 207 207 209 210
151 155 157 163 168 171 174 175 177 179 180 182 183 186 190 192 194 198 199 203 206 210 219 219 216 224 226 226 231 239 244 253 262 268 271 273 265 237 225 215 212 216 217
156 160 159 162 168 173 177 182 181 183 185 188 191 194 197 202 207 216 219 220 223 225 230 233 228 230 236 238 240 242 246 246 254 261 263 267 273 258 239 228 225 223 223
165 169 172 175 176 177 183 185 184 181 184 191 200 206 208 210 217 228 236 237 237 236 235 236 236 236 239 238 244 249 245 242 245 252 255 260 272 258 238 236 237 233 231
171 173 179 182 184 184 186 178 189 189 191 201 209 216 218 220 226 236 238 240 244 243 236 236 234 233 236 234 236 246 252 249 241 246 253 258 266 253 238 237 237 237 239
174 180 181 184 184 191 192 185 194 198 202 208 215 221 219 222 230 235 232 229 232 233 232 232 233 234 240 243 238 244 252 250 242 241 248 253 254 248 242 238 238 240 244
174 180 184 189 189 189 191 193 199 205 207 210 210 217 218 214 222 226 222 229 228 226 231 231 230 233 237 244 246 244 243 242 243 242 246 250 249 244 243 244 246 246 251
175 176 183 191 195 190 193 198 204 213 217 209 215 215 213 212 213 210 209 210 215 222 230 231 225 226 232 227 239 244 242 245 247 242 240 244 248 244 244 248 246 244 250
179 175 182 192 194 190 189 188 168 178 175 174 193 198 207 216 214 207 214 221 222 224 231 237 231 227 236 234 243 254 258 254 247 243 241 241 244 241 240 246 246 244 248
175 176 184 193 190 187 175 163 154 151 100 288 231 210 219 220 218 212 220 235 247 254 247 239 228 228 241 242 244 251 254 252 246 245 245 245 243 241 240 244 244 241 245
179 177 184 184 178 181 173 164 163 167 236 285 314 276 261 240 218 210 223 237 247 253 253 247 234 223 237 245 246 249 251 249 247 243 242 244 246 244 237 238 239 239 244
188 181 180 179 174 170 165 162 155 156 257 247 234 231 230 237 219 199 213 231 236 245 248 234 234 234 233 240 251 256 252 246 238 236 242 243 246 247 240 232 231 238 245
186 180 179 168 164 160 156 158 166 193 237 241 238 262 349 316 301 272 254 248 238 236 240 232 229 238 240 224 225 263 276 256 242 240 240 244 252 256 248 233 221 224 237
174 163 152 144 138 140 130 129 138 146 154 132 55 48 32 6 337 304 266 254 248 247 251 245 235 239 238 205 194 203 267 296 270 245 235 239 257 274 259 237 220 222 230
119 115 112 114 114 111 112 113 96 80 60 46 41 16 339 341 332 306 277 264 255 244 249 246 236 232 238 228 200 177 193 225 274 303 243 232 245 257 257 251 238 238 241
109 105 103 103 105 110 105 98 99 102 99 90 2 311 324 347 338 323 299 279 267 254 247 245 232 222 218 224 216 210 202 176 181 276 307 275 259 252 248 241 244 246 244
121 123 125 118 120 122 119 116 106 100 100 79 10 351 341 331 327 331 323 309 288 267 250 239 226 220 215 212 201 193 207 207 189 192 248 292 306 287 276 252 248 245 238
109 121 135 137 141 133 119 114 120 118 106 73 341 322 317 317 322 332 334 334 325 305 274 254 244 238 236 232 222 209 189 186 194 191 209 242 274 285 286 267 256 241 212
Height
1533 1535 1538 1539 1541 1542 1543 1544 1545 1546 1547 1548 1550 1551 1551 1551 1551 1552 1554 1555 1557 1558 1559 1560 1561 1561 1562 1562 1562 1563 1563 1563 1563 1563 1563 1563 1563 1562 1561 1561 1561 1561 1560
1531 1534 1538 1540 1541 1542 1544 1545 1546 1547 1548 1549 1551 1551 1552 1552 1552 1553 1554 1555 1557 1558 1560 1561 1561 1562 1562 1563 1563 1563 1564 1564 1565 1565 1565 1564 1564 1563 1563 1562 1562 1562 1562
1531 1534 1538 1540 1542 1543 1544 1546 1547 1548 1549 1550 1551 1552 1553 1553 1553 1554 1554 1556 1557 1559 1560 1561 1562 1563 1563 1563 1563 1563 1564 1565 1565 1565 1565 1565 1564 1564 1563 1563 1563 1563 1563
1532 1535 1538 1541 1542 1544 1545 1547 1548 1549 1550 1551 1552 1553 1554 1554 1554 1555 1555 1556 1558 1559 1560 1561 1562 1563 1563 1563 1563 1563 1564 1564 1565 1564 1564 1564 1564 1564 1564 1563 1563 1563 1563
1532 1535 1538 1541 1543 1544 1546 1548 1550 1551 1552 1553 1553 1554 1554 1555 1556 1556 1556 1557 1558 1559 1560 1561 1562 1562 1563 1563 1563 1563 1563 1564 1564 1564 1564 1564 1564 1564 1564 1564 1563 1563 1563
1532 1535 1538 1541 1543 1545 1547 1549 1550 1552 1553 1554 1554 1554 1555 1555 1556 1557 1558 1558 1558 1559 1560 1560 1561 1561 1562 1562 1562 1562 1563 1563 1563 1563 1563 1563 1563 1564 1564 1564 1564 1563 1563
1532 1535 1538 1540 1543 1545 1547 1548 1550 1551 1553 1554 1555 1555 1555 1556 1557 1558 1558 1559 1559 1559 1560 1560 1560 1561 1561 1561 1561 1561 1562 1562 1562 1562 1562 1561 1561 1562 1563 1563 1563 1563 1562
1533 1536 1539 1541 1543 1545 1547 1548 1550 1551 1552 1553 1554 1555 1555 1555 1556 1557 1558 1558 1558 1558 1558 1558 1558 1559 1559 1559 1559 1559 1559 1560 1560 1560 1560 1560 1560 1560 1561 1561 1561 1561 1561
1534 1536 1539 1540 1542 1544 1546 1547 1549 1551 1552 1552 1553 1554 1555 1555 1556 1556 1557 1557 1557 1557 1557 1557 1557 1557 1556 1556 1557 1557 1557 1557 1557 1558 1558 1558 1558 1559 1559 1559 1559 1559 1559
1534 1536 1538 1540 1541 1543 1544 1546 1548 1550 1551 1552 1552 1553 1554 1555 1556 1556 1557 1557 1557 1556 1556 1556 1555 1556 1555 1555 1555 1555 1555 1555 1555 1555 1556 1556 1556 1556 1556 1556 1557 1556 1556
1533 1535 1537 1538 1540 1542 1543 1545 1546 1548 1549 1551 1552 1553 1554 1555 1555 1556 1556 1556 1556 1556 1555 1555 1554 1554 1554 1553 1553 1553 1553 1553 1553 1553 1553 1553 1553 1553 1553 1554 1554 1554 1553
1531 1533 1536 1537 1539 1540 1542 1543 1545 1546 1548 1550 1552 1553 1554 1554 1554 1555 1555 1555 1555 1555 1554 1553 1553 1552 1552 1551 1551 1550 1550 1551 1550 1550 1549 1549 1549 1550 1550 1551 1551 1550 1549
1531 1533 1535 1537 1538 1540 1542 1544 1545 1546 1547 1548 1550 1552 1554 1554 1554 1554 1554 1554 1553 1553 1553 1552 1552 1551 1551 1550 1549 1549 1549 1548 1547 1547 1546 1546 1546 1547 1547 1547 1547 1546 1546
1530 1532 1534 1536 1538 1540 1542 1544 1545 1546 1546 1547 1548 1550 1552 1553 1553 1553 1553 1553 1552 1552 1552 1551 1550 1550 1549 1549 1548 1548 1547 1546 1545 1544 1544 1544 1543 1543 1544 1544 1543 1543 1542
1528 1531 1534 1537 1538 1539 1541 1543 1544 1546 1547 1547 1547 1548 1550 1551 1551 1552 1551 1551 1551 1551 1550 1549 1548 1548 1548 1547 1547 1546 1544 1544 1543 1542 1541 1541 1541 1541 1541 1541 1540 1540 1539
1526 1529 1532 1535 1538 1539 1540 1542 1544 1545 1545 1546 1546 1546 1548 1549 1550 1551 1550 1549 1549 1549 1548 1547 1546 1546 1545 1545 1544 1543 1542 1541 1540 1539 1538 1537 1537 1537 1537 1538 1537 1536 1535
1525 1527 1529 1532 1536 1538 1540 1542 1543 1544 1545 1546 1546 1546 1546 1547 1548 1549 1548 1548 1547 1547 1546 1545 1544 1543 1542 1541 1541 1541 1540 1539 1537 1536 1535 1534 1533 1533 1534 1534 1534 1533 1533
1524 1525 1528 1530 1533 1535 1538 1540 1542 1543 1545 1546 1546 1545 1545 1545 1546 1546 1545 1545 1545 1544 1543 1541 1541 1539 1538 1538 1537 1536 1536 1535 1534 1533 1532 1531 1531 1530 1531 1531 1531 1530 1529
1522 1523 1526 1528 1530 1533 1536 1538 1540 1541 1542 1543 1543 1543 1543 1543 1543 1543 1542 1542 1541 1540 1539 1538 1537 1536 1534 1533 1533 1532 1532 1531 1530 1529 1529 1528 1528 1528 1527 1527 1527 1527 1526
1519 1521 1523 1526 1527 1530 1533 1535 1536 1536 1537 1539 1540 1540 1540 1540 1539 1539 1538 1538 1537 1535 1534 1533 1532 1531 1529 1529 1528 1527 1527 1526 1526 1525 1525 1524 1524 1524 1524 1523 1523 1523 1522
1515 1518 1521 1523 1524 1526 1528 1530 1532 1533 1534 1535 1536 1536 1535 1534 1534 1533 1532 1532 1531 1529 1528 1527 1526 1525 1523 1524 1523 1521 1521 1521 1520 1520 1520 1520 1520 1520 1520 1520 1519 1519 1519
1511 1514 1517 1519 1521 1523 1525 1526 1528 1530 1531 1532 1531 1531 1530 1530 1529 1527 1526 1525 1524 1522 1521 1520 1519 1518 1517 1518 1517 1516 1516 1516 1515 1514 1514 1515 1515 1515 1516 1516 1516 1516 1515
1507 1510 1513 1515 1518 1520 1522 1524 1525 1526 1527 1528 1528 1528 1527 1525 1522 1521 1519 1517 1515 1514 1513 1512 1512 1510 1509 1510 1511 1512 1511 1509 1509 1509 1508 1509 1510 1510 1511 1512 1512 1512 1511
1504 1507 1510 1512 1515 1517 1519 1521 1522 1523 1523 1523 1524 1524 1522 1519 1516 1514 1511 1509 1507 1506 1505 1504 1504 1503 1503 1503 1504 1505 1506 1505 1505 1504 1504 1504 1505 1505 1506 1506 1507 1507 1507
1501 1503 1505 1508 1512 1514 1515 1517 1518 1519 1519 1520 1520 1519 1517 1514 1511 1509 1506 1503 1501 1499 1498 1497 1497 1496 1497 1497 1498 1498 1500 1500 1499 1499 1498 1499 1500 1500 1500 1501 1501 1502 1501
1500 1502 1504 1506 1509 1510 1511 1513 1514 1515 1516 1517 1516 1515 1512 1510 1507 1505 1503 1500 1497 1495 1493 1492 1491 1491 1492 1493 1493 1494 1495 1495 1494 1494 1493 1493 1495 1495 1495 1496 1496 1496 1496